Weather History for Ann Arbor, MI

Change the Weather History Date:

Sunday, October 27, 2013

  Actual Average Record
Temperature  
Mean Temperature 40 °F -  
Max Temperature 53 °F 56 °F 75 °F (2000)
Min Temperature 28 °F 35 °F 21 °F (2005)
Degree Days  
Heating Degree Days 24    
Moisture  
Dew Point 30 °F    
Average Humidity 74    
Maximum Humidity 96    
Minimum Humidity 40    
Precipitation  
Precipitation 0.00 in - - ()
Sea Level Pressure  
Sea Level Pressure 30.03 in    
Wind  
Wind Speed 5 mph (WSW)    
Max Wind Speed 14 mph    
Max Gust Speed 16 mph    
Visibility 10 miles    
Events      
Averages and records for this station are not official NWS values.
T = Trace of Precipitation, MM = Missing Value Source: NWS Daily Summary

Daily Weather History Graph

Daily Weather History Graph

Search for Another Location

Airport:

Trip Planner

Search our weather history database for the weather conditions in past years. The results will help you decide how hot, cold, wet, or windy it might be!

Date:

Astronomy

Oct. 27, 2013 Rise Set
Actual Time 8:02 AM EDT 6:34 PM EDT
Civil Twilight 7:33 AM EDT 7:03 PM EDT
Nautical Twilight 7:00 AM EDT 7:36 PM EDT
Astronomical Twilight 6:27 AM EDT 8:08 PM EDT
Moon 12:51 AM EDT (10/27) 2:50 PM EDT (10/27)
Length of Visible Light 11h 30m
Length of Day
10h 32m
Last Quarter, 44% of the Moon is Illuminated
Oct 27
Last Quarter
Nov 3
New
Nov 10
First Quarter
Nov 17
Full
Nov 25
Last Quarter

Hourly Weather History & Observations

Time (EDT) Temp. Windchill Dew Point Humidity Pressure Visibility Wind Dir Wind Speed Gust Speed Precip Events Conditions
12:53 AM 33.1 °F 28.7 °F 30.9 °F 92% 30.02 in 10.0 mi West 4.6 mph - N/A   Clear
1:53 AM 35.1 °F 29.3 °F 30.0 °F 82% 30.01 in 10.0 mi NW 6.9 mph - N/A   Clear
2:53 AM 36.0 °F 32.1 °F 30.9 °F 82% 30.01 in 10.0 mi WNW 4.6 mph - N/A   Clear
3:53 AM 30.0 °F 25.2 °F 28.0 °F 92% 30.01 in 10.0 mi West 4.6 mph - N/A   Clear
4:53 AM 28.9 °F 25.2 °F 27.0 °F 92% 30.02 in 10.0 mi WSW 3.5 mph - N/A   Clear
5:53 AM 30.0 °F - 28.9 °F 96% 30.03 in 10.0 mi Calm Calm - N/A   Mostly Cloudy
6:53 AM 30.9 °F 26.2 °F 28.9 °F 92% 30.04 in 10.0 mi WSW 4.6 mph - N/A   Clear
7:53 AM 32.0 °F 27.5 °F 30.0 °F 92% 30.06 in 10.0 mi WSW 4.6 mph - N/A   Overcast
8:53 AM 33.1 °F 28.7 °F 30.9 °F 92% 30.07 in 10.0 mi WSW 4.6 mph - N/A   Overcast
9:53 AM 37.0 °F 33.3 °F 34.0 °F 89% 30.08 in 10.0 mi WSW 4.6 mph - N/A   Overcast
10:53 AM 42.1 °F 37.7 °F 34.0 °F 73% 30.08 in 10.0 mi WSW 6.9 mph - N/A   Overcast
11:53 AM 44.1 °F 41.5 °F 33.1 °F 65% 30.08 in 10.0 mi West 4.6 mph - N/A   Overcast
12:53 PM 46.0 °F 44.8 °F 33.1 °F 61% 30.07 in 10.0 mi SW 3.5 mph - N/A   Overcast
1:53 PM 48.9 °F - 33.1 °F 54% 30.04 in 10.0 mi WSW 6.9 mph - N/A   Overcast
2:53 PM 50.0 °F - 34.0 °F 54% 30.01 in 10.0 mi WSW 10.4 mph - N/A   Mostly Cloudy
3:53 PM 53.1 °F - 30.0 °F 41% 30.00 in 10.0 mi WSW 13.8 mph - N/A   Partly Cloudy
4:53 PM 53.1 °F - 28.9 °F 40% 30.01 in 10.0 mi SW 10.4 mph 16.1 mph N/A   Clear
5:53 PM 50.0 °F - 28.0 °F 43% 30.00 in 10.0 mi WSW 10.4 mph - N/A   Clear
6:53 PM 45.0 °F 42.6 °F 28.0 °F 52% 30.01 in 10.0 mi SW 4.6 mph - N/A   Clear
7:53 PM 39.0 °F - 28.0 °F 65% 30.02 in 10.0 mi Calm Calm - N/A   Clear
8:53 PM 37.0 °F - 28.9 °F 73% 30.03 in 10.0 mi Calm Calm - N/A   Clear
9:53 PM 32.0 °F 27.5 °F 28.9 °F 88% 30.03 in 10.0 mi SW 4.6 mph - N/A   Clear
10:53 PM 30.9 °F 25.2 °F 26.1 °F 82% 30.04 in 10.0 mi WSW 5.8 mph - N/A   Clear
11:53 PM 36.0 °F 32.1 °F 28.0 °F 73% 30.04 in 10.0 mi WSW 4.6 mph - N/A   Clear